Regional Weather Roundup
Issued by NWS Charleston, SC

Current Version | Previous Version | Text Only | Print | Product List | Glossary Off
Versions: 1 2 3 4 5 6 7 8 9 10 11 12 13 14 15 16 17 18 19 20 21 22 23 24 25 26 27 28 29 30 31 32 33 34 35 36 37 38 39 40 41 42 43 44 45 46 47 48 49 50

000
ASUS42 KCHS 280427
RWRCHS

REGIONAL WEATHER ROUNDUP
NATIONAL WEATHER SERVICE CHARLESTON SC
1200 AM EDT TUE JUL 28 2015

NOTE: "FAIR" INDICATES FEW OR NO CLOUDS BELOW 12,000 FEET WITH NO
SIGNIFICANT WEATHER AND/OR OBSTRUCTIONS TO VISIBILITY.

NOT ALL STATIONS ARE QUALITY CONTROLLED BY THE NATIONAL
WEATHER SERVICE. USE DATA WITH CAUTION...ESPECIALLY
DEWPOINT OBSERVATIONS.

SCZ027-030-031-034>040-042>050-280500-
...SOUTHEAST SOUTH CAROLINA...

CITY           SKY/WX    TMP DP  RH WIND       PRES   REMARKS
N CHARLESTON   PTCLDY    80  76  87 VRB3      29.96F
WATERFRONT PRK   N/A     82  78  88 E7        29.94S HX  91
MOUNT PLEASANT LGT RAIN  77  75  94 CALM      29.97S
JOHNS ISLAND   FAIR      79  77  94 CALM      29.96F
PINOPOLIS      NOT AVBL
MONCKS CORNER  FAIR      79  73  83 CALM      29.98S
SUMMERVILLE    FAIR      77  77 100 CALM      29.98S
BEAUFORT MCAS  MOCLDY    78  76  93 CALM      29.96S
BEAUFORT ARPT  FAIR      79  79 100 CALM      29.95S
HILTON HEAD IS PTCLDY    81  79  94 CALM      29.97S
WALTERBORO     MOCLDY    79  75  89 NE3       29.98S
ALLENDALE      FAIR      79  75  89 CALM      29.97S

...SOUTHERN MIDLANDS AND PEE DEE...

CITY           SKY/WX    TMP DP  RH WIND       PRES   REMARKS
GEORGETOWN     NOT AVBL
KINGSTREE      NOT AVBL
ORANGEBURG     CLEAR     80  73  79 CALM      29.99S
BARNWELL       FAIR      81  75  83 SE5       29.99R
AIKEN          FAIR      79  68  69 CALM      30.03R
MANNING        FAIR      75  72  88 CALM      29.98F
COLUMBIA       MOCLDY    84  72  67 E5        29.98R
SUMTER         CLOUDY    82  74  77 SE6       29.97S
FLORENCE       MOCLDY    80  74  81 CALM      29.99F
MYRTLE BEACH   PTCLDY    81  72  74 SE6         N/A
N MYRTLE BEACH PTCLDY    82  73  74 E5        29.98F

$$

GAZ063-065-086>088-099>101-113>116-118-119-134>141-150-280500-
...SOUTHEAST GEORGIA...

CITY           SKY/WX    TMP DP  RH WIND       PRES   REMARKS
SAVANNAH ARPT  PTCLDY    80  76  87 NE5       29.96S
HUNTER AAF     PTCLDY    80  79  97 CALM      29.93F
FORT STEWART   PTCLDY    77  74  91 CALM      29.94S
STATESBORO     PTCLDY    78  78 100 CALM      29.97R
SYLVANIA       PTCLDY    79  76  91 CALM      29.98S
CLAXTON        FAIR      77  75  94 CALM      29.96S

...CSRA...CENTRAL AND FAR SOUTHEAST GEORGIA...

CITY           SKY/WX    TMP DP  RH WIND       PRES   REMARKS
THOMSON        PTCLDY    79  73  81 CALM      30.03R
AUGUSTA-BUSH   CLEAR     77  71  82 SE6       29.96R
AUGUSTA-DANIEL CLEAR     83  69  62 SE5       29.99R
SWAINSBORO     FAIR      81  75  83 CALM      29.98S
VIDALIA        PTCLDY    79  73  83 CALM      29.97R FOG
EASTMAN        FAIR      75  75 100 CALM      29.99R
HAZLEHURST     FAIR      79  79 100 CALM      29.96R
ALMA           CLEAR     78  76  93 E5        29.95S
WAYCROSS       CLEAR     80  80 100 CALM      29.95S
JESUP          FAIR      79  77  94 CALM      29.96R
BAXLEY         FAIR      79  77  94 CALM      29.96R
BRUNSWICK      CLEAR     77  77 100 CALM      29.95S
SAINT SIMONS   CLEAR     80  76  87 E3        29.94S

$$

SCZ027-028-034-036>038-045-046-048>050-GAZ119-141-280500-
...LAKE AND SUPPLEMENTAL COASTAL OBSERVATIONS...

STATION/POSITION TIME  TEMP    WIND        PRES    WAVE   SWELL
                       AIR SEA DIR/SP/G            HT/PER HT/PER/DIR
                 (UTC) (F)     (DEG/KT/KT) (MB)    (FT/S) (FT/S/D)
UPR LAKE MARION  NOT AVBL
WINYAH BAY       0300   82     100/  7     1014.0
LAKE MURRAY      0300   84     360/  4/  9 1014.9R
ACE BASIN NERRS  NOT AVBL
FORT PULASKI     0400   82 85   40/  4/  5 1014.8R
SAPELO ISLAND    0400   78      40/  2     1014.0S

$$

ANZ835-935-AMZ111-154-330-350-352-354-370-450-454-472-280500-
...C-MAN AND BUOY OBSERVATIONS...

STATION/POSITION TIME  TEMP    WIND        PRES    WAVE   SWELL
                       AIR SEA DIR/SP/G            HT/PER HT/PER/DIR
                 (UTC) (F)     (DEG/KT/KT) (MB)    (FT/S) (FT/S/D)
BUOY 41004       0350   83 84   90/  4/  6 1013.8F   3/ 6   3/ 6
BUOY 41008       0350   81 82  140/  2/  2 1014.4R   2/ 5   2/150/ 5
FOLLY BEACH CMAN 0400   82      70/  6/  8 1014.7F
CAPERS NEARSHORE 0308   82      90/  8/ 10 1014.8R
FRIPP NEARSHORE  0300   83      90/  4/  6 1014.3R


STATION/POSITION TIME  TEMP    WIND        PRES    WAVE   SWELL
                       AIR SEA DIR/SP/G            HT/PER HT/PER/DIR
                 (UTC) (F)     (DEG/KT/KT) (MB)    (FT/S) (FT/S/D)
5E ST. MARYS GA  0321      81                N/A     2/ 6
FRYING PAN BUOY  0350   83 83  110/ 10/ 12 1015.4F   3/ 6   3/110/ 6
BUOY 41025       NOT AVBL
CAPE LOOKOUT NC  0400   80     120/ 10/ 11 1015.7S
BUOY 41002       0350   81 82  260/ 21/ 29 1015.5F   5/ 6   2/ 70/11
BUOY 41010       0320   84 84  200/ 14/ 17 1015.9R
ST AUGUSTINE FL  0400   78 81  200/  5/  6 1015.1R


$$


USA.gov is the U.S. government's official web portal to all federal, state and local government web resources and services.